Location: *
(60.1759°S, 155.0663°W)
Time: 03:09:51
(UTC+00:00)

PAYLOAD A - Pass Details

Date: 17 September 2019
Orbit: 691 x 833 km, 98.3° (Epoch: 22 October)

Event Time Altitude Azimuth Distance (km) Brightness Sun altitude
Exits shadow 13:29:15 21° 10° (N) 1,635 5.4 -21.2°
Maximum altitude 13:32:38 77° 286° (WNW) 788 3.8 -20.9°
Drops below altitude 10° 13:37:50 10° 199° (SSW) 2,358 6.7 -20.4°
Sets 13:40:14 0° 197° (SSW) 3,315 7.5 -20.1°
